• In Russia
  • List of Countries
  • For 7 days
  • Water Temperature
  • Satellite Maps
  • Weather Map
  • Weather Widgets
  • user-avatar
    Login

    Hourly Weather Lepyagi

    Today, 25 April, Thursday

    Time Temperature Precipitation Wind Pressure Humidity
    00:00 +15°C° 0 mm 2 mps 751 mmHg 54%
    01:00 +14°C° 0 mm 2 mps 751 mmHg 55%
    02:00 +14°C° 0 mm 2 mps 751 mmHg 57%
    03:00 +13°C° 0 mm 2 mps 751 mmHg 59%
    04:00 +13°C° 0 mm 2 mps 751 mmHg 61%
    05:00 +12°C° 0 mm 2 mps 751 mmHg 63%
    06:00 +12°C° 0 mm 2 mps 751 mmHg 64%
    07:00 +14°C° 0 mm 2 mps 751 mmHg 59%
    08:00 +16°C° 0 mm 2 mps 751 mmHg 54%
    09:00 +18°C° 0 mm 2 mps 751 mmHg 49%
    10:00 +20°C° 0 mm 3 mps 751 mmHg 45%
    11:00 +21°C° 0 mm 3 mps 751 mmHg 40%
    12:00 +24°C° 0 mm 3 mps 751 mmHg 36%
    13:00 +24°C° 0 mm 3 mps 750 mmHg 34%
    14:00 +25°C° 0 mm 3 mps 750 mmHg 33%
    15:00 +25°C° 0 mm 3 mps 750 mmHg 31%
    16:00 +25°C° 0 mm 2 mps 750 mmHg 33%
    17:00 +24°C° 0 mm 2 mps 749 mmHg 36%
    18:00 +24°C° 0 mm 2 mps 749 mmHg 38%
    19:00 +21°C° 0 mm 2 mps 749 mmHg 41%
    20:00 +20°C° 0 mm 2 mps 749 mmHg 45%
    21:00 +18°C° 0 mm 2 mps 749 mmHg 48%
    22:00 +18°C° 0 mm 2 mps 749 mmHg 50%
    23:00 +17°C° 0 mm 2 mps 749 mmHg 51%

    Tomorrow, 26 April, Friday

    Time Temperature Precipitation Wind Pressure Humidity
    00:00 +17°C° 0 mm 2 mps 749 mmHg 53%
    01:00 +17°C° 0 mm 2 mps 749 mmHg 53%
    02:00 +17°C° 0 mm 2 mps 749 mmHg 53%
    03:00 +17°C° 0 mm 2 mps 749 mmHg 54%
    04:00 +16°C° 0 mm 2 mps 749 mmHg 57%
    05:00 +16°C° 0 mm 2 mps 749 mmHg 60%
    06:00 +15°C° 0 mm 2 mps 749 mmHg 63%
    07:00 +17°C° 0 mm 2 mps 749 mmHg 59%
    08:00 +19°C° 0 mm 1 mps 749 mmHg 54%
    09:00 +20°C° 0 mm 1 mps 749 mmHg 50%
    10:00 +21°C° 0 mm 1 mps 749 mmHg 46%
    11:00 +21°C° 0 mm 2 mps 749 mmHg 41%
    12:00 +23°C° 0 mm 2 mps 749 mmHg 37%
    13:00 +23°C° 0 mm 1 mps 749 mmHg 37%
    14:00 +22°C° 0 mm 1 mps 748 mmHg 37%
    15:00 +20°C° 0 mm 0 mps 748 mmHg 37%
    16:00 +22°C° 0 mm 1 mps 748 mmHg 38%
    17:00 +22°C° 0 mm 1 mps 748 mmHg 40%
    18:00 +22°C° 0 mm 1 mps 748 mmHg 41%
    19:00 +21°C° 0 mm 1 mps 748 mmHg 44%
    20:00 +20°C° 0 mm 1 mps 748 mmHg 48%
    21:00 +19°C° 0 mm 1 mps 748 mmHg 51%
    22:00 +18°C° 0 mm 1 mps 747 mmHg 52%
    23:00 +18°C° 0 mm 1 mps 747 mmHg 53%

    Day after tomorrow, 27 April, Saturday

    Time Temperature Precipitation Wind Pressure Humidity
    00:00 +15°C° 0 mm 0 mps 747 mmHg 55%
    01:00 +15°C° 0 mm 1 mps 747 mmHg 57%
    02:00 +15°C° 0 mm 1 mps 747 mmHg 59%
    03:00 +14°C° 0 mm 1 mps 746 mmHg 62%
    04:00 +14°C° 0 mm 1 mps 746 mmHg 64%
    05:00 +14°C° 0 mm 1 mps 746 mmHg 67%
    06:00 +13°C° 0 mm 1 mps 746 mmHg 70%
    07:00 +15°C° 0 mm 2 mps 746 mmHg 65%
    08:00 +17°C° 0 mm 2 mps 745 mmHg 60%
    09:00 +18°C° 0 mm 2 mps 745 mmHg 56%
    10:00 +19°C° 0 mm 3 mps 745 mmHg 51%
    11:00 +21°C° 0 mm 3 mps 745 mmHg 46%
    12:00 +22°C° 0 mm 3 mps 744 mmHg 41%
    13:00 +22°C° 0 mm 3 mps 744 mmHg 43%
    14:00 +21°C° 0 mm 3 mps 743 mmHg 45%
    15:00 +21°C° 0 mm 3 mps 743 mmHg 46%
    16:00 +21°C° 0 mm 2 mps 743 mmHg 48%
    17:00 +20°C° 0 mm 2 mps 742 mmHg 49%
    18:00 +20°C° 0 mm 2 mps 742 mmHg 51%
    19:00 +19°C° 0 mm 2 mps 741 mmHg 53%
    20:00 +18°C° 0 mm 3 mps 741 mmHg 55%
    21:00 +18°C° 0 mm 3 mps 741 mmHg 56%
    22:00 +17°C° 0.1 mm 3 mps 741 mmHg 61%
    23:00 +16°C° 0.1 mm 3 mps 740 mmHg 67%

    28 April, Sunday

    Time Temperature Precipitation Wind Pressure Humidity
    00:00 +14°C° 0.1 mm 3 mps 740 mmHg 72%
    01:00 +13°C° 0 mm 3 mps 740 mmHg 71%
    02:00 +12°C° 0 mm 3 mps 740 mmHg 69%
    03:00 +12°C° 0 mm 3 mps 739 mmHg 67%
    04:00 +12°C° 0 mm 3 mps 739 mmHg 70%
    05:00 +11°C° 0 mm 3 mps 739 mmHg 72%
    06:00 +11°C° 0 mm 3 mps 738 mmHg 74%
    07:00 +13°C° 0 mm 3 mps 738 mmHg 70%
    08:00 +14°C° 0 mm 4 mps 738 mmHg 66%
    09:00 +17°C° 0 mm 4 mps 738 mmHg 62%
    10:00 +17°C° 0.5 mm 3 mps 738 mmHg 66%
    11:00 +16°C° 0.5 mm 3 mps 738 mmHg 71%
    12:00 +16°C° 0.5 mm 2 mps 739 mmHg 75%
    13:00 +13°C° 0.3 mm 4 mps 739 mmHg 78%
    14:00 +12°C° 0.3 mm 5 mps 739 mmHg 82%
    15:00 +9°C° 0.3 mm 7 mps 739 mmHg 85%
    16:00 +9°C° 0.1 mm 7 mps 740 mmHg 83%
    17:00 +8°C° 0.1 mm 7 mps 740 mmHg 82%
    18:00 +6°C° 0.1 mm 7 mps 740 mmHg 80%
    19:00 +7°C° 0 mm 6 mps 741 mmHg 76%
    20:00 +7°C° 0 mm 6 mps 742 mmHg 73%
    21:00 +7°C° 0 mm 6 mps 743 mmHg 69%
    22:00 +5°C° 0 mm 6 mps 743 mmHg 68%
    23:00 +4°C° 0 mm 7 mps 743 mmHg 67%

    29 April, Monday

    Time Temperature Precipitation Wind Pressure Humidity
    00:00 +3°C° 0 mm 7 mps 744 mmHg 66%
    01:00 +2°C° 0 mm 7 mps 744 mmHg 68%
    02:00 +1°C° 0 mm 6 mps 745 mmHg 70%
    03:00 +1°C° 0 mm 6 mps 745 mmHg 71%
    04:00 -1°C° 0 mm 6 mps 745 mmHg 73%
    05:00 -1°C° 0 mm 6 mps 746 mmHg 74%
    06:00 -1°C° 0 mm 6 mps 746 mmHg 75%
    07:00 +1°C° 0 mm 6 mps 746 mmHg 69%
    08:00 +2°C° 0 mm 7 mps 747 mmHg 63%
    09:00 +4°C° 0 mm 7 mps 747 mmHg 58%
    10:00 +5°C° 0 mm 7 mps 747 mmHg 54%
    11:00 +6°C° 0 mm 7 mps 747 mmHg 50%
    12:00 +8°C° 0 mm 7 mps 747 mmHg 46%
    13:00 +8°C° 0 mm 6 mps 747 mmHg 45%
    14:00 +8°C° 0 mm 6 mps 747 mmHg 44%
    15:00 +9°C° 0 mm 6 mps 747 mmHg 43%
    16:00 +8°C° 0 mm 6 mps 747 mmHg 44%
    17:00 +8°C° 0 mm 6 mps 747 mmHg 45%
    18:00 +8°C° 0 mm 5 mps 747 mmHg 45%
    19:00 +6°C° 0 mm 5 mps 748 mmHg 48%
    20:00 +5°C° 0 mm 4 mps 748 mmHg 50%
    21:00 +4°C° 0 mm 4 mps 748 mmHg 52%
    22:00 +3°C° 0 mm 4 mps 749 mmHg 53%
    23:00 +3°C° 0 mm 3 mps 749 mmHg 54%

    30 April, Tuesday

    Time Temperature Precipitation Wind Pressure Humidity
    00:00 +2°C° 0 mm 3 mps 749 mmHg 54%
    01:00 +2°C° 0 mm 3 mps 749 mmHg 57%
    02:00 +1°C° 0 mm 3 mps 750 mmHg 59%
    03:00 +1°C° 0 mm 3 mps 750 mmHg 61%
    04:00 0°C° 0 mm 3 mps 750 mmHg 62%
    05:00 0°C° 0 mm 3 mps 750 mmHg 63%
    06:00 0°C° 0 mm 3 mps 750 mmHg 64%
    07:00 +1°C° 0 mm 3 mps 750 mmHg 58%
    08:00 +3°C° 0 mm 4 mps 750 mmHg 51%
    09:00 +4°C° 0 mm 4 mps 750 mmHg 45%
    10:00 +5°C° 0 mm 4 mps 750 mmHg 42%
    11:00 +6°C° 0 mm 4 mps 750 mmHg 39%
    12:00 +7°C° 0 mm 4 mps 750 mmHg 37%
    13:00 +8°C° 0 mm 4 mps 750 mmHg 36%
    14:00 +8°C° 0 mm 4 mps 749 mmHg 34%
    15:00 +10°C° 0 mm 3 mps 749 mmHg 33%
    16:00 +10°C° 0 mm 3 mps 749 mmHg 35%
    17:00 +10°C° 0 mm 3 mps 748 mmHg 36%
    18:00 +9°C° 0 mm 3 mps 748 mmHg 37%
    19:00 +8°C° 0 mm 3 mps 748 mmHg 41%
    20:00 +7°C° 0 mm 2 mps 748 mmHg 45%
    21:00 +6°C° 0 mm 2 mps 748 mmHg 49%
    22:00 +5°C° 0 mm 2 mps 748 mmHg 51%
    23:00 +5°C° 0 mm 2 mps 748 mmHg 53%
    Show more